CW7412 Weather Reports


time (UTC)temp
F
wind
direction
speed
knots
gust
knots
rain 1hr
in
rain 24hr
in
rain mn
in
humidity
%
barometer
mb
20260503214704 67 255 2.6 5.2 0.00 0.00 0.00 34 1016.5
20260503214204 67 251 5.2 7.8 0.00 0.00 0.00 32 1016.5
20260503211704 66 112 2.6 6.1 0.00 0.00 0.00 33 1016.8
20260503210704 66 251 5.2 6.1 0.00 0.00 0.00 33 1017.0
20260503210203 66 248 4.3 7.8 0.00 0.00 0.00 31 1017.0
20260503204204 66 117 2.6 7.8 0.00 0.00 0.00 33 1017.2
20260503201704 65 246 2.6 7.0 0.00 0.00 0.00 31 1017.6
20260503201203 65 136 4.3 6.1 0.00 0.00 0.00 32 1017.6
20260503200204 67 244 2.6 6.1 0.00 0.00 0.00 32 1017.6
20260503194204 66 262 5.2 7.8 0.00 0.00 0.00 30 1018.1
20260503193704 64 200 2.6 6.1 0.00 0.00 0.00 32 1018.3
20260503193204 65 145 5.2 7.8 0.00 0.00 0.00 33 1018.3
20260503191704 65 104 4.3 7.8 0.00 0.00 0.00 33 1018.6
20260503191204 65 270 3.5 5.2 0.00 0.00 0.00 30 1018.7
20260503190704 64 305 4.3 6.1 0.00 0.00 0.00 32 1018.7
20260503184704 63 60 2.6 6.1 0.00 0.00 0.00 31 1019.2
20260503183704 64 281 3.5 7.0 0.00 0.00 0.00 32 1019.3
20260503180704 62 100 4.3 6.1 0.00 0.00 0.00 31 1019.5
20260503180204 62 208 2.6 5.2 0.00 0.00 0.00 31 1019.5
20260503173204 61 45 3.5 6.1 0.00 0.00 0.00 32 1020.0
20260503171704 60 147 2.6 5.2 0.00 0.00 0.00 34 1020.2
20260503150704 56 222 1.7 4.3 0.00 0.00 0.00 41 1021.3
20260503131204 47 112 0.9 1.7 0.00 0.00 0.00 74 1021.5
20260503130703 46 156 1.7 1.7 0.00 0.00 0.00 74 1021.5
20260503110704 33 112 0.0 0.0 0.00 0.00 0.00 95 1020.3
20260503110204 33 292 0.0 0.0 0.00 0.00 0.00 95 1020.3
20260503100204 34 227 0.0 0.0 0.00 0.00 0.00 95 1019.7
20260503081204 38 226 0.0 0.0 0.00 0.00 0.00 87 1019.3
20260503080704 37 202 0.0 0.0 0.00 0.00 0.00 88 1019.3
20260503080204 37 286 0.0 0.0 0.00 0.00 0.00 88 1019.3
20260503071704 38 90 0.0 0.0 0.00 0.00 0.00 90 1018.8
20260503071204 38 76 0.0 0.0 0.00 0.00 0.00 91 1018.8
20260503070204 37 251 0.0 0.0 0.00 0.00 0.00 92 1018.8
20260503060204 38 258 0.0 0.0 0.00 0.00 0.00 89 1018.6
20260503054204 39 250 0.0 0.0 0.00 0.00 0.00 87 1018.6
20260503051204 40 281 0.0 0.0 0.00 0.00 0.00 89 1018.5
20260503050204 40 257 0.0 0.0 0.00 0.00 0.00 88 1018.5
20260503043704 41 262 0.0 0.0 0.00 0.00 0.00 86 1018.3
20260503040704 42 279 0.0 0.0 0.00 0.00 0.00 83 1018.1
20260503033704 44 222 0.0 0.0 0.00 0.00 0.00 80 1018.0
20260503031204 45 270 0.0 0.0 0.00 0.00 0.00 80 1018.0
20260503030704 45 270 0.0 0.0 0.00 0.00 0.00 80 1018.0
20260503023205 46 258 0.0 0.0 0.00 0.00 0.00 80 1017.8
20260503021704 46 257 0.0 0.0 0.00 0.00 0.00 78 1017.8
20260503021204 46 253 0.0 0.0 0.00 0.00 0.00 79 1017.7
20260503014204 47 112 0.0 0.0 0.00 0.00 0.00 73 1017.3
20260503011704 48 203 0.0 0.0 0.00 0.00 0.00 75 1017.1
20260503011204 48 268 0.0 0.0 0.00 0.00 0.00 74 1017.1
20260503010204 48 261 0.0 0.0 0.00 0.00 0.00 73 1017.1
20260503004204 49 283 0.0 0.0 0.00 0.00 0.00 68 1016.6
20260503003204 49 266 0.0 0.0 0.00 0.00 0.00 66 1016.6
20260503001704 51 261 0.0 0.0 0.00 0.00 0.00 63 1016.3
20260503000704 53 225 0.0 0.0 0.00 0.00 0.00 59 1016.3
20260503000204 52 238 0.0 0.0 0.00 0.00 0.00 61 1016.3
20260502234203 58 258 0.0 0.0 0.00 0.00 0.00 49 1016.2
20260502231704 56 151 0.0 0.0 0.00 0.00 0.00 52 1016.0
20260502231204 57 218 0.0 1.7 0.00 0.00 0.00 53 1015.8
20260502224704 57 2 2.6 4.3 0.00 0.00 0.00 49 1015.8
20260502224204 57 114 2.6 4.3 0.00 0.00 0.00 48 1015.8
20260502223704 58 284 0.9 1.7 0.00 0.00 0.00 48 1015.9
20260502223204 59 262 1.7 2.6 0.00 0.00 0.00 49 1016.0
20260502221204 55 303 0.0 4.3 0.00 0.00 0.00 57 1016.0
20260502220704 54 223 1.7 4.3 0.00 0.00 0.00 56 1016.0